Weather in Lentvaris

Lithuania     54°38′51″N   25°03′01″E
temp.,
°C
wind,
m/s
gust,
m/s
humid.,
%
clouds,
%
prec.,
mm/h
press.,
hPa
HPBL,
m
26 july, mon
mon2600:00+20se247368 0.0 101869
03:00+17se238188 0.0 101942
06:00+17se3583100 0.0 101987
09:00+21se4768100 0.0 1019292
12:00+25se4654100 0.0 10191023
15:00+27se5648100 0.0 10182017
18:00+26ese465798 0.0 1017589
21:00+21ese3678100 0.0 1017109
27 july, tue
tue2700:00+20se4137041 0.0 1017345
03:00+19ese4126997 0.0 1016292
06:00+18ese5138690 0.4 1015365
09:00+20se51282100 0.6 1015528
12:00+24se7106078 0.2 1013994
15:00+27se6854100 0.2 10121784
18:00+22ssw4884100 3.9 1011240
21:00+19nw2397100 21.1 101093
28 july, wed
wed2800:00+18w1297100 4.1 101158
03:00+17wsw269634 4.3 1010161
06:00+17w399981 0.0 1011293
09:00+20w588927 0.0 1011509
12:00+24w6864100 0.0 10121148
15:00+26w585373 0.0 10112251
18:00+24wsw487283 0.4 1011444
21:00+20w37847 1.4 1011120
29 july, thu
thu2900:00+17wsw238942 0.0 101240
03:00+16wsw229078 0.0 101231
06:00+16wsw249099 0.0 101265
09:00+18wsw258592 0.0 1012185
12:00+23w356492 0.0 1012875
15:00+25w355937 0.2 10111445
18:00+23wnw357443 1.1 1011676
21:00+19wnw22834 1.3 101017
30 july, fri
fri3000:00+19s228326 0.0 101114
03:00+16s34933 0.0 101060
06:00+18s3788100 0.0 1010155
09:00+22ssw477241 0.0 1009363
12:00+26ssw58532 0.0 10081549
15:00+26ssw475698 0.0 10071115
18:00+25ssw5960100 0.0 10051007
21:00+18sw249496 1.4 100493